STARLINK-1448 (45665 NORAD) Tracking and Keplerian Element Data

This shows tracking and keplerian element data for the satellite.

Feedback or suggestion? Click here.




ElementValue
Catalog45665
NameSTARLINK-1448
Epoch Orbit567
Epoch Day186.50001157
Epoch Year2020
RAAN20.5373
Inclination53.0017
Eccentricity0.0001217
Argument of Perigee74.8008
Mean Anonmoly6.757
Mean Motion15.4612476
Decay Rate-0.01077219
L11 45665U 20035J 20186.50001157 -.01077219 00000-0 -23894-1 0 9998
L22 45665 53.0017 20.5373 0001217 74.8008 6.7570 15.46124760 5671

Live tracking and technical data element details for STARLINK-1448 (NORAD 45665). STARLINK-1448 can be tracked NOW for your location showing map with azimuth and elevation plus other details from your city location.

Track the satellite on the map from your city or location and see movement details for azimuth, elevation, latitude, longitude, range, height, and movement on the map or in text.







IsCatalogInMostPopularTable: catalog: 45665, numindb: 7
Update: records affected: 1



GetName: 45665 STARLINK-1448

Hit Count: updated at: Sun, 05 Jul 2020 16:13:27 GMT